This demonstration page uses our WeatherBlox Daily Observations layout. Learn more.

Left ArrowRight Arrow

39.01783, -85.05884

Hourly Observations for May 8, 2015

Temp ( °F °C ) Dew Point ( °F °C ) Humidity (%) Winds ( mph kmh ) Pressure ( in mb ) Visibility ( mi km ) Precip ( " mm )
12:52 am 00:52 Clear 71 21.7 58 14.4 63 63 SW 6 9 30.02 1017 10 16 0.00 0.00
1:52 am 01:52 Clear 65 18.3 58 14.4 78 78 SSW 3 6 30.02 1017 9 14 0.00 0.00
2:52 am 02:52 Clear 62 16.7 58 14.4 86 86 Calm 30.02 1017 8 13 0.00 0.00
3:52 am 03:52 Clear 63 17.2 58 14.4 84 84 S 3 6 30.02 1017 8 13 0.00 0.00
4:52 am 04:52 Clear 63 17.2 58 14.4 84 84 S 3 6 30.03 1017 9 14 0.00 0.00
5:52 am 05:52 Clear 62 16.7 56 13.3 80 80 WSW 3 6 30.04 1017 9 14 0.00 0.00
6:52 am 06:52 Mostly Cloudy 59 15 56 13.3 90 90 S 3 6 30.05 1018 7 11 0.00 0.00
7:52 am 07:52 Mostly Cloudy 63 17.2 59 15 87 87 Calm 30.07 1018 7 11 0.00 0.00
8:52 am 08:52 Mostly Sunny 71 21.7 59 15 66 66 SSW 3 6 30.08 1019 10 16 0.00 0.00
9:52 am 09:52 Sunny 77 25 58 14.4 52 52 WSW 5 7 30.07 1018 10 16 0.00 0.00
10:52 am 10:52 Mostly Sunny 81 27.2 57 13.9 44 44 SW 6 9 30.07 1018 10 16 0.00 0.00
11:52 am 11:52 Mostly Sunny 82 27.8 54 12.2 38 38 SSW 9 15 30.06 1018 10 16 0.00 0.00
12:52 pm 12:52 Mostly Cloudy 84 28.9 56 13.3 38 38 SSW 13 20 30.05 1018 10 16 0.00 0.00
1:52 pm 13:52 Mostly Cloudy 85 29.4 56 13.3 37 37 SW 8 13 30.04 1017 10 16 0.00 0.00
2:52 pm 14:52 Mostly Cloudy 84 28.9 54 12.2 36 36 VRB 5 7 30.01 1016 10 16 0.00 0.00
3:52 pm 15:52 Mostly Cloudy 86 30 55 12.8 35 35 SSW 9 15 30.00 1016 10 16 0.00 0.00
4:52 pm 16:52 Cloudy 85 29.4 54 12.2 35 35 S 9 15 29.98 1015 10 16 0.00 0.00
5:52 pm 17:52 Mostly Cloudy 85 29.4 54 12.2 35 35 SW 8 13 29.98 1015 10 16 0.00 0.00
6:52 pm 18:52 Mostly Cloudy 84 28.9 53 11.7 34 34 SW 9 15 29.98 1015 10 16 0.00 0.00
7:52 pm 19:52 Mostly Cloudy 81 27.2 53 11.7 38 38 SSW 6 9 29.99 1016 10 16 0.00 0.00
8:52 pm 20:52 Mostly Cloudy 73 22.8 55 12.8 53 53 S 3 6 29.99 1016 10 16 0.00 0.00
9:52 pm 21:52 Cloudy 70 21.1 56 13.3 61 61 S 3 6 30.00 1016 10 16 0.00 0.00
11:52 pm 23:52 Mostly Cloudy 69 20.6 54 12.2 59 59 S 5 7 30.00 1016 10 16 0.00 0.00

Powered by AerisWeather